TimeCST,TemperatureF,Dew PointF,Humidity,Sea Level PressureIn,VisibilityMPH,Wind Direction,Wind SpeedMPH,Gust SpeedMPH,PrecipitationIn,Events,Conditions,WindDirDegrees,DateUTC
12:55 AM,33.3,29.7,87,30.11,10.0,NNW,8.1,-,N/A,,Clear,330,2012-12-27 06:55:00
1:06 AM,33.8,30.2,87,30.11,10.0,NW,5.8,-,N/A,,Mostly Cloudy,320,2012-12-27 07:06:00
1:55 AM,35.2,30.6,83,30.12,10.0,NNW,5.8,-,N/A,,Overcast,340,2012-12-27 07:55:00
2:55 AM,36.5,30.7,80,30.11,10.0,North,9.2,-,N/A,,Overcast,360,2012-12-27 08:55:00
3:28 AM,37.4,30.2,75,30.11,10.0,NNW,9.2,-,N/A,,Overcast,340,2012-12-27 09:28:00
3:42 AM,37.4,30.2,75,30.11,10.0,North,11.5,-,N/A,,Overcast,350,2012-12-27 09:42:00
3:55 AM,36.7,30.2,77,30.11,10.0,North,12.7,-,N/A,,Overcast,10,2012-12-27 09:55:00
4:55 AM,36.0,29.7,78,30.11,10.0,North,9.2,-,N/A,,Overcast,10,2012-12-27 10:55:00
4:57 AM,35.6,30.2,81,30.11,10.0,North,6.9,-,N/A,,Overcast,10,2012-12-27 10:57:00
5:55 AM,34.9,28.8,78,30.14,10.0,North,8.1,-,N/A,,Overcast,350,2012-12-27 11:55:00
6:55 AM,34.0,28.2,79,30.13,10.0,North,9.2,-,N/A,,Overcast,360,2012-12-27 12:55:00
7:55 AM,35.1,29.3,80,30.14,10.0,North,11.5,-,N/A,,Overcast,360,2012-12-27 13:55:00
8:55 AM,36.3,29.5,76,30.18,10.0,North,6.9,-,N/A,,Overcast,10,2012-12-27 14:55:00
9:36 AM,37.4,30.2,75,30.17,10.0,NW,4.6,-,N/A,,Mostly Cloudy,310,2012-12-27 15:36:00
9:40 AM,37.4,30.2,75,30.19,10.0,NW,5.8,-,N/A,,Scattered Clouds,320,2012-12-27 15:40:00
9:55 AM,38.7,29.7,70,30.19,10.0,NNW,6.9,-,N/A,,Partly Cloudy,340,2012-12-27 15:55:00
10:55 AM,42.8,30.6,62,30.18,10.0,North,4.6,-,N/A,,Scattered Clouds,360,2012-12-27 16:55:00
11:55 AM,46.0,30.7,55,30.13,10.0,Variable,2.3,-,N/A,,Mostly Cloudy,0,2012-12-27 17:55:00
12:55 PM,50.0,32.2,50,30.10,10.0,Variable,1.2,-,N/A,,Mostly Cloudy,0,2012-12-27 18:55:00
1:55 PM,51.1,31.5,47,30.08,10.0,NW,4.6,-,N/A,,Scattered Clouds,320,2012-12-27 19:55:00
2:56 PM,52.0,31.3,45,30.08,10.0,WNW,5.8,-,N/A,,Partly Cloudy,300,2012-12-27 20:56:00
3:55 PM,52.3,31.6,45,30.06,10.0,NNW,2.3,-,N/A,,Partly Cloudy,340,2012-12-27 21:55:00
4:55 PM,48.4,36.0,62,30.07,10.0,NW,2.3,-,N/A,,Partly Cloudy,310,2012-12-27 22:55:00
5:55 PM,43.0,34.3,72,30.13,10.0,SSE,2.3,-,N/A,,Partly Cloudy,160,2012-12-27 23:55:00
6:55 PM,40.3,36.0,85,30.12,10.0,Calm,Calm,-,N/A,,Clear,0,2012-12-28 00:55:00
7:55 PM,36.3,33.6,90,30.13,10.0,Calm,Calm,-,N/A,,Clear,0,2012-12-28 01:55:00
8:55 PM,33.8,32.0,93,30.10,10.0,Calm,Calm,-,N/A,,Clear,0,2012-12-28 02:55:00
9:55 PM,33.8,32.4,94,30.11,10.0,Calm,Calm,-,N/A,,Clear,0,2012-12-28 03:55:00
10:55 PM,32.2,30.6,94,30.11,10.0,Calm,Calm,-,N/A,,Scattered Clouds,0,2012-12-28 04:55:00
11:55 PM,32.4,30.7,94,29.81,10.0,NNW,2.3,-,N/A,,Mostly Cloudy,340,2012-12-28 05:55:00